PAKTES 1A

导读

PAKTES 1A全称为巴基斯坦技术评估卫星-1A,由巴基斯坦空间与外大气层研究委员会全程自主研制,是巴基斯坦国产科学实验卫星。2018年7月9日,该卫星在酒泉卫星发射中心同巴基斯坦遥感卫星一号一同由中国长征二号丙运载火箭以“一箭双星”方式发射升空。PAKTES 1A重285kg,运行于610公里轨道,设计寿命三年,主要开展卫星平台技术验证试验,也是中巴航天合作的重要成果。

基本信息
目录编号:
43529
目录名称:
PAKTES 1A
国际标识:
2018-056A
轨道中心:
EARTH
卫星名称:
PAKTES 1A
卫星全名:
--
卫星状态:
在轨 (已飞行2897 天)
发射日期:
2018-07-09 UTC
国别 :
巴基斯坦 (PK)
星等 :
--
轨道信息
数据来源 国际轨道数据
星历时间: 2026-06-15T00:02:41+0800
6小时前
查看轨道信息
半长轴: 6947.819km
偏心率: 0.002224
轨道倾角: 98.130°
近地点辐角 114.060°
升交点赤经 322.048°
平近点角 246.295°
近地点: 554.23km
远地点: 585.134km
周期: 96.058分钟
每日圈数: 14.990983
详细信息
使用方式:
暂无
2D轨道图
3D轨道图
轨道高度分析图
轨道倾角分析图
轨道综合分析图
查看轨道综合分析图